Weather History for KSGS - January, 2014

Change the Weather History Date:

Saturday, January 25, 2014

  Actual Average (KMSP) Record (KMSP)
Temperature  
Mean Temperature 16 °F 16 °F  
Max Temperature 27 °F 24 °F 58 °F (1944)
Min Temperature 6 °F 7 °F -31 °F (1904)
Degree Days  
Heating Degree Days 48 49  
Month to date heating degree days 1241  
Since 1 July heating degree days 4264  
Cooling Degree Days 0 0  
Month to date cooling degree days 0  
Year to date cooling degree days 0  
Moisture  
Dew Point -6 °F    
Average Humidity 49    
Maximum Humidity 81    
Minimum Humidity 31    
Precipitation  
Precipitation 0.02 in 0.02 in 0.50 in (1950)
Month to date precipitation 0.74  
Year to date precipitation 0.74  
Snow  
Snow 0.00 in 0.40 in 7.50 in (1950)
Month to date snowfall 10.0  
Since 1 July snowfall 31.8  
Snow Depth -    
Sea Level Pressure  
Sea Level Pressure 29.77 in    
Wind  
Wind Speed 14 mph (NW)    
Max Wind Speed 24 mph    
Max Gust Speed 33 mph    
Visibility 9 miles    
Events Snow    
T = Trace of Precipitation, MM = Missing Value Source: NWS Daily Summary

Daily Weather History Graph

Daily Weather History Graph

Search for Another Location

Airport or City:

Trip Planner

Search our weather history database for the weather conditions in past years. The results will help you decide how hot, cold, wet, or windy it might be!

Date:

Astronomy

Jan. 25, 2014 Rise Set
Actual Time 7:38 AM CST 5:10 PM CST
Civil Twilight 7:07 AM CST 5:42 PM CST
Nautical Twilight 6:31 AM CST 6:18 PM CST
Astronomical Twilight 5:56 AM CST 6:52 PM CST
Moon 2:10 AM CST (1/25) 12:11 PM CST (1/25)
Length of Visible Light 10h 35m
Length of Day
9h 31m
Waning Crescent, 34% of the Moon is Illuminated
Jan 25
Waning Crescent
Jan 30
New
Feb 6
First Quarter
Feb 14
Full
Feb 22
Last Quarter

Hourly Weather History & Observations

Time (CST) Temp. Windchill Dew Point Humidity Pressure Visibility Wind Dir Wind Speed Gust Speed Precip Events Conditions
12:12 AM 27.5 °F 13.9 °F 5.9 °F 40% 29.55 in 10.0 mi NW 20.7 mph 27.6 mph N/A   Clear
12:32 AM 25.7 °F 13.5 °F 2.8 °F 38% 29.57 in 7.0 mi NW 15.0 mph 33.4 mph N/A   Clear
12:52 AM 24.4 °F 9.9 °F -2.2 °F 31% 29.58 in 5.0 mi NNW 20.7 mph 32.2 mph N/A   Haze
1:12 AM 23.7 °F 10.5 °F 5.5 °F 46% 29.59 in 10.0 mi NW 16.1 mph 25.3 mph N/A   Clear
1:32 AM 22.5 °F 7.2 °F 0.9 °F 39% 29.60 in 10.0 mi NW 20.7 mph 29.9 mph N/A   Clear
1:52 AM 20.8 °F 6.8 °F -3.5 °F 34% 29.62 in 10.0 mi NW 16.1 mph 25.3 mph N/A   Clear
2:12 AM 20.3 °F 7.7 °F -3.6 °F 35% 29.63 in 10.0 mi NW 12.7 mph 27.6 mph N/A   Clear
2:32 AM 19.6 °F 5.2 °F -0.2 °F 42% 29.65 in 10.0 mi WNW 16.1 mph 26.5 mph N/A   Clear
2:52 AM 17.6 °F 1.3 °F -4.0 °F 38% 29.66 in 7.0 mi NW 19.6 mph 29.9 mph N/A   Clear
3:12 AM 16.7 °F 1.5 °F -5.1 °F 38% 29.68 in 10.0 mi NW 16.1 mph 28.8 mph N/A   Clear
3:32 AM 14.9 °F -2.3 °F -7.6 °F 36% 29.69 in 7.0 mi NW 19.6 mph 32.2 mph N/A   Clear
3:52 AM 14.0 °F -5.1 °F -5.3 °F 42% 29.70 in 7.0 mi NW 24.2 mph 28.8 mph N/A   Clear
4:12 AM 13.1 °F -4.2 °F -4.9 °F 45% 29.72 in 5.0 mi NNW 18.4 mph 28.8 mph N/A   Haze
4:32 AM 12.6 °F -3.3 °F -5.1 °F 45% 29.72 in 10.0 mi NW 15.0 mph 23.0 mph N/A   Clear
4:52 AM 11.8 °F -5.8 °F -5.6 °F 46% 29.73 in 10.0 mi NW 18.4 mph 27.6 mph N/A   Clear
5:12 AM 11.1 °F -6.7 °F -6.2 °F 46% 29.75 in 7.0 mi NW 18.4 mph 33.4 mph N/A   Clear
5:32 AM 10.4 °F -6.0 °F -6.3 °F 47% 29.75 in 10.0 mi NW 15.0 mph 21.9 mph N/A   Clear
5:52 AM 9.7 °F -5.7 °F -6.2 °F 49% 29.77 in 10.0 mi NW 12.7 mph 27.6 mph N/A   Clear
6:12 AM 9.3 °F -8.0 °F -6.7 °F 48% 29.78 in 10.0 mi NW 16.1 mph 21.9 mph N/A   Clear
6:32 AM 8.6 °F -8.9 °F -6.3 °F 51% 29.80 in 10.0 mi NW 16.1 mph 27.6 mph N/A   Clear
6:52 AM 8.2 °F -6.8 °F -6.7 °F 51% 29.81 in 10.0 mi NW 11.5 mph 21.9 mph N/A   Clear
7:12 AM 7.3 °F -12.2 °F -7.1 °F 52% 29.82 in 10.0 mi NW 19.6 mph 24.2 mph N/A   Clear
7:32 AM 7.0 °F -9.8 °F -7.6 °F 51% 29.83 in 10.0 mi NW 13.8 mph 19.6 mph N/A   Clear
7:52 AM 6.8 °F -10.7 °F -8.0 °F 51% 29.84 in 10.0 mi NW 15.0 mph - N/A   Clear
8:12 AM 6.6 °F -9.5 °F -8.1 °F 51% 29.85 in 10.0 mi NW 12.7 mph 19.6 mph N/A   Clear
8:32 AM 6.8 °F -11.8 °F -8.1 °F 51% 29.85 in 10.0 mi NW 17.3 mph 25.3 mph N/A   Clear
8:52 AM 6.4 °F -12.3 °F -8.5 °F 50% 29.86 in 10.0 mi NW 17.3 mph 24.2 mph N/A   Clear
9:12 AM 6.4 °F -11.1 °F -8.7 °F 50% 29.87 in 10.0 mi WNW 15.0 mph 25.3 mph N/A   Clear
9:32 AM 6.1 °F -14.3 °F -8.5 °F 51% 29.88 in 7.0 mi NW 20.7 mph 26.5 mph N/A   Clear
9:52 AM 6.4 °F -12.3 °F -8.9 °F 50% 29.89 in 10.0 mi WNW 17.3 mph 26.5 mph N/A   Clear
10:12 AM 6.6 °F -14.5 °F -8.1 °F 51% 29.90 in 10.0 mi NW 23.0 mph 28.8 mph N/A   Clear
10:32 AM 6.8 °F -11.8 °F -7.8 °F 51% 29.90 in 10.0 mi WNW 17.3 mph 25.3 mph N/A   Clear
10:52 AM 7.2 °F -10.8 °F -7.6 °F 51% 29.90 in 10.0 mi WNW 16.1 mph 24.2 mph N/A   Clear
11:12 AM 7.3 °F -11.7 °F -8.0 °F 50% 29.90 in 10.0 mi NW 18.4 mph 26.5 mph N/A   Clear
11:32 AM 7.9 °F -10.4 °F -7.6 °F 49% 29.91 in 10.0 mi NW 17.3 mph 25.3 mph N/A   Clear
11:52 AM 8.2 °F -8.2 °F -8.0 °F 48% 29.90 in 10.0 mi WNW 13.8 mph 21.9 mph N/A   Clear
12:12 PM 8.4 °F -7.9 °F -7.6 °F 48% 29.89 in 10.0 mi WNW 13.8 mph 23.0 mph N/A   Clear
12:32 PM 9.1 °F -6.4 °F -7.4 °F 47% 29.88 in 10.0 mi WNW 12.7 mph 17.3 mph N/A   Clear
12:52 PM 8.8 °F -8.1 °F -8.5 °F 46% 29.88 in 10.0 mi WNW 15.0 mph 23.0 mph N/A   Clear
1:12 PM 9.5 °F -7.2 °F -8.5 °F 44% 29.88 in 10.0 mi WNW 15.0 mph 20.7 mph N/A   Clear
1:32 PM 9.5 °F -6.6 °F -8.9 °F 43% 29.87 in 10.0 mi WNW 13.8 mph 21.9 mph N/A   Clear
1:52 PM 9.9 °F -6.1 °F -8.7 °F 43% 29.86 in 10.0 mi WNW 13.8 mph 21.9 mph N/A   Clear
2:12 PM 10.2 °F -4.3 °F -9.9 °F 40% 29.85 in 10.0 mi NW 11.5 mph 16.1 mph N/A   Clear
2:32 PM 10.4 °F -5.4 °F -10.7 °F 38% 29.85 in 10.0 mi NW 13.8 mph 18.4 mph N/A   Clear
2:52 PM 10.4 °F -5.4 °F -10.5 °F 39% 29.85 in 10.0 mi WNW 13.8 mph 18.4 mph N/A   Clear
3:12 PM 10.8 °F -3.6 °F -9.9 °F 39% 29.85 in 10.0 mi WNW 11.5 mph 20.7 mph N/A   Clear
3:32 PM 10.9 °F -2.6 °F -9.4 °F 40% 29.85 in 10.0 mi WNW 10.4 mph - N/A   Clear
3:52 PM 10.6 °F -2.2 °F -8.9 °F 41% 29.85 in 10.0 mi West 9.2 mph - N/A   Clear
4:12 PM 9.9 °F -4.7 °F -8.5 °F 43% 29.85 in 10.0 mi West 11.5 mph 17.3 mph N/A   Clear
4:32 PM 9.5 °F -5.2 °F -8.5 °F 44% 29.86 in 10.0 mi West 11.5 mph - N/A   Clear
4:52 PM 8.8 °F -5.3 °F -8.9 °F 45% 29.85 in 10.0 mi West 10.4 mph - N/A   Clear
5:12 PM 8.4 °F -3.9 °F -9.6 °F 44% 29.84 in 10.0 mi West 8.1 mph - N/A   Clear
5:32 PM 7.7 °F -0.9 °F -9.6 °F 45% 29.83 in 10.0 mi West 4.6 mph - N/A   Clear
5:52 PM 7.7 °F -2.4 °F -10.3 °F 44% 29.84 in 10.0 mi West 5.8 mph - N/A   Clear
6:12 PM 7.7 °F - -9.6 °F 45% 29.82 in 10.0 mi Calm Calm - N/A   Clear
6:32 PM 7.7 °F - -8.9 °F 47% 29.80 in 10.0 mi Calm Calm - N/A   Scattered Clouds
6:52 PM 8.1 °F - -8.0 °F 48% 29.79 in 10.0 mi Calm Calm - N/A   Mostly Cloudy
7:12 PM 8.6 °F -1.3 °F -7.6 °F 48% 29.78 in 10.0 mi WSW 5.8 mph - N/A   Overcast
7:32 PM 8.6 °F - -6.7 °F 50% 29.77 in 10.0 mi Calm Calm - N/A   Overcast
7:52 PM 9.1 °F - -5.6 °F 51% 29.75 in 10.0 mi Calm Calm - N/A   Overcast
8:12 PM 9.3 °F - -6.2 °F 50% 29.74 in 10.0 mi Calm Calm - N/A   Overcast
8:32 PM 9.5 °F - -5.4 °F 51% 29.72 in 10.0 mi Calm Calm - N/A   Overcast
8:52 PM 9.5 °F - -4.9 °F 52% 29.70 in 10.0 mi Calm Calm - N/A   Overcast
9:12 PM 9.3 °F - -4.9 °F 53% 29.70 in 10.0 mi Calm Calm - N/A   Overcast
9:32 PM 8.6 °F 2.0 °F -2.4 °F 61% 29.67 in 3.0 mi SSE 3.5 mph - N/A Snow Light Snow
9:52 PM 7.5 °F 0.8 °F 0.3 °F 72% 29.65 in 1.8 mi SE 3.5 mph - N/A Snow Light Snow
10:12 PM 7.5 °F -1.1 °F 1.4 °F 76% 29.62 in 2.5 mi SE 4.6 mph - N/A Snow Light Snow
10:32 PM 7.5 °F - 2.1 °F 79% 29.59 in 2.5 mi Calm Calm - 0.01 in Snow Light Snow
10:52 PM 7.7 °F - 2.7 °F 80% 29.59 in 1.5 mi Calm Calm - 0.01 in Snow Light Snow
11:12 PM 8.1 °F - 3.0 °F 80% 29.59 in 1.0 mi Calm Calm - 0.01 in Snow Light Snow
11:32 PM 8.1 °F 1.4 °F 3.0 °F 80% 29.56 in 1.2 mi ESE 3.5 mph - 0.01 in   Overcast
11:52 PM 8.4 °F 1.8 °F 3.6 °F 81% 29.55 in 3.0 mi ESE 3.5 mph - 0.01 in Snow Light Snow